DW0416 Weather Reports


Display with metric or nautical units.
time (UTC)temp
F
wind
direction
speed
MPH
gust
MPH
rain 1hr
in
rain 24hr
in
rain mn
in
humidity
%
barometer
mb
20260506044530 39 295 3.0 10.0 0.00 0.01 0.01 39 1016.1
20260506043027 40 18 4.0 8.0 0.00 0.01 0.01 38 1016.4
20260506041526 40 299 4.0 9.0 0.00 0.01 0.01 38 1016.2
20260506040022 40 352 5.0 14.0 0.00 0.01 0.01 37 1015.8
20260506034522 40 7 5.0 12.0 0.00 0.01 0.01 37 1015.6
20260506033035 40 285 6.0 13.0 0.00 0.01 0.01 39 1015.6
20260506031533 39 94 7.0 18.0 0.00 0.01 0.01 43 1015.3
20260506030040 40 176 2.0 17.0 0.00 0.01 0.01 46 1014.9
20260506024527 41 106 8.0 18.0 0.00 0.01 0.01 46 1014.4
20260506023007 42 67 7.0 16.0 0.00 0.01 0.01 42 1013.5
20260506021508 42 150 6.0 17.0 0.00 0.01 0.01 45 1013.2
20260506020014 43 75 7.0 17.0 0.00 0.01 0.01 44 1012.8
20260506014527 45 349 4.0 16.0 0.00 0.01 0.01 39 1012.5
20260506013024 45 202 2.0 14.0 0.00 0.01 0.01 37 1012.3
20260506011506 47 184 3.0 21.0 0.00 0.01 0.01 34 1011.6
20260506010009 48 54 3.0 22.0 0.00 0.01 0.01 32 1011.5
20260506004525 50 145 2.0 17.0 0.00 0.01 0.01 29 1011.3
20260506003024 51 270 7.0 16.0 0.00 0.01 0.01 29 1011.2
20260506001523 51 321 5.0 20.0 0.00 0.01 0.01 30 1011.3
20260506000010 50 115 4.0 21.0 0.00 0.01 0.01 29 1011.2
20260505234510 51 338 13.0 20.0 0.00 0.01 0.01 27 1011.0
20260505233016 52 39 4.0 15.0 0.00 0.01 0.01 27 1010.8
20260505231526 53 324 5.0 15.0 0.00 0.01 0.01 26 1010.8
20260505230038 55 300 4.0 18.0 0.00 0.01 0.01 25 1010.4
20260505224508 56 302 7.0 17.0 0.00 0.01 0.01 23 1010.3
20260505223015 57 311 8.0 18.0 0.00 0.01 0.01 24 1010.3
20260505221520 55 340 6.0 16.0 0.00 0.01 0.01 23 1010.3
20260505220022 56 286 8.0 20.0 0.00 0.01 0.01 25 1010.3
20260505214533 57 297 7.0 13.0 0.00 0.01 0.01 26 1010.3
20260505213011 55 302 6.0 15.0 0.00 0.01 0.01 25 1010.3
20260505211521 55 284 8.0 15.0 0.00 0.01 0.01 26 1010.4
20260505210020 56 304 6.0 11.0 0.00 0.01 0.01 26 1010.3
20260505204527 56 322 6.0 14.0 0.00 0.01 0.01 26 1010.2
20260505203033 55 276 4.0 12.0 0.00 0.01 0.01 26 1010.3
20260505201513 55 251 1.0 12.0 0.00 0.01 0.01 28 1010.4
20260505200027 55 291 7.0 12.0 0.00 0.01 0.01 26 1010.3
20260505194523 55 300 6.0 14.0 0.00 0.01 0.01 26 1010.4
20260505193026 55 245 4.0 17.0 0.00 0.01 0.01 26 1010.5
20260505191528 55 139 1.0 13.0 0.00 0.01 0.01 27 1010.7
20260505190034 54 291 4.0 10.0 0.00 0.01 0.01 27 1010.9
20260505184527 54 307 6.0 12.0 0.00 0.01 0.01 28 1011.1
20260505183026 53 312 4.0 11.0 0.00 0.01 0.01 28 1011.2
20260505181529 53 174 3.0 8.0 0.00 0.01 0.01 31 1011.3
20260505180035 53 286 6.0 12.0 0.00 0.01 0.01 29 1011.6
20260505174522 52 331 3.0 15.0 0.00 0.01 0.01 32 1011.6
20260505173010 51 90 3.0 10.0 0.00 0.01 0.01 36 1011.6
20260505171510 51 359 3.0 13.0 0.00 0.01 0.01 34 1011.8
20260505170016 51 253 5.0 9.0 0.00 0.01 0.01 38 1011.9
20260505164526 51 303 4.0 10.0 0.00 0.01 0.01 35 1012.0
20260505163019 53 294 4.0 11.0 0.00 0.01 0.01 36 1012.1
20260505161523 50 279 4.0 8.0 0.00 0.01 0.01 37 1012.1
20260505153022 47 313 2.0 6.0 0.00 0.01 0.01 51 1012.5
20260505151520 46 303 4.0 9.0 0.00 0.01 0.01 52 1012.6
20260505124523 41 299 5.0 14.0 0.00 0.01 0.01 56 1012.3
20260505123009 42 336 5.0 16.0 0.00 0.01 0.01 56 1012.3
20260505121512 42 21 8.0 17.0 0.00 0.01 0.01 56 1012.4
20260505120033 42 26 7.0 13.0 0.00 0.01 0.01 56 1012.5
20260505114523 42 330 3.0 8.0 0.00 0.01 0.01 61 1012.7
20260505113026 42 32 2.0 9.0 0.01 0.01 0.01 64 1012.7
20260505111522 42 318 3.0 9.0 0.01 0.01 0.01 64 1012.7
20260505101529 45 25 6.0 14.0 0.00 0.00 0.00 56 1012.9
20260505100010 46 343 5.0 10.0 0.00 0.00 0.00 53 1012.6
20260505094529 46 26 8.0 14.0 0.00 0.00 0.00 52 1012.5
20260505093021 47 342 7.0 20.0 0.00 0.00 0.00 51 1012.4
20260505091522 47 51 9.0 15.0 0.00 0.00 0.00 50 1012.1
20260505090008 47 27 6.0 17.0 0.00 0.00 0.00 49 1012.1
20260505084543 48 338 5.0 14.0 0.00 0.00 0.00 49 1011.8
20260505083023 48 326 6.0 14.0 0.00 0.00 0.00 49 1012.0
20260505081527 48 210 6.0 12.0 0.00 0.00 0.00 49 1012.1
20260505080039 48 352 5.0 14.0 0.00 0.00 0.00 49 1012.2
20260505074510 49 21 6.0 16.0 0.00 0.00 0.00 47 1012.2
20260505073029 49 11 6.0 16.0 0.00 0.00 0.00 48 1012.1
20260505071528 49 29 8.0 14.0 0.00 0.00 0.00 47 1011.9
20260505070039 49 34 5.0 15.0 0.00 0.00 0.00 47 1012.0
20260505064529 50 26 12.0 22.0 0.00 0.00 0.00 46 1012.1
20260505063012 50 315 10.0 16.0 0.00 0.00 0.00 45 1012.1
20260505061532 51 14 4.0 14.0 0.00 0.00 0.00 44 1012.2
20260505060045 52 85 2.0 12.0 0.00 0.00 0.00 42 1012.1